Tracking 28529 objects as of 25-Feb-2024
HD Live streaming from Space Station
objects crossing your sky now

STARLINK-5800

Track STARLINK-5800 now!
10-day predictions
STARLINK-5800 is classified as:


NORAD ID: 56041
Int'l Code: 2023-042BH
Perigee: 565.6 km
Apogee: 566.8 km
Inclination: 43.0 °
Period: 95.8 minutes
Semi major axis: 6937 km
RCS: Unknown
Launch date: March 24, 2022
Source: United States (US)
Launch site: AIR FORCE EASTERN TEST RANGE (AFETR)
Your satellite tracking list
Your tracking list is empty




NASA's NSSDC Master Catalog

Two Line Element Set (TLE):
1 56041U 23042BH  24055.48437352  .00002065  00000-0  16787-3 0  9994
2 56041  43.0024 113.7468 0000925 268.0745  91.9992 15.02544397 51600
Source of the keplerian elements: AFSPC